FW2418 Weather Reports


time (UTC)temp
C
wind
direction
speed
KPH
gust
KPH
rain 1hr
cm
rain 24hr
cm
rain mn
cm
humidity
%
barometer
mb
20260831183030 31 83 1.6 8.0 0.00 0.00 0.00 76 1014.0
20260831182030 30 74 1.6 6.4 0.00 0.00 0.00 79 1014.4
20260831181029 30 79 1.6 8.0 0.00 0.00 0.00 80 1014.4
20260831180028 29 31 1.6 6.4 0.00 0.00 0.00 81 1014.4
20260831175027 28 52 1.6 8.0 0.00 0.00 0.00 82 1014.4
20260831174026 28 1 3.2 9.7 0.00 0.00 0.00 83 1014.7
20260831173025 28 38 3.2 9.7 0.00 0.00 0.00 84 1015.0
20260831172024 28 58 3.2 11.3 0.00 0.00 0.00 81 1015.4
20260831171023 28 85 3.2 12.9 0.00 0.00 0.00 80 1015.4
20260831170022 28 34 3.2 14.5 0.00 0.00 0.00 81 1015.4
20260831165022 28 24 8.0 16.1 0.00 0.00 0.00 78 1015.7
20260831164020 30 36 6.4 16.1 0.00 0.00 0.00 74 1015.7
20260831163020 31 37 3.2 4.8 0.00 0.00 0.00 71 1015.4
20260831161916 31 26 1.6 3.2 0.00 0.00 0.00 73 1015.4
20260831160916 31 53 1.6 3.2 0.00 0.00 0.00 73 1015.4
20260831155915 31 108 1.6 3.2 0.00 0.00 0.00 71 1015.7
20260831154843 30 338 0.0 3.2 0.00 0.00 0.00 76 1015.7
20260831153842 30 69 1.6 3.2 0.00 0.00 0.00 75 1016.1
20260831152841 30 320 0.0 4.8 0.00 0.00 0.00 74 1015.7
20260831151738 30 19 0.0 4.8 0.00 0.00 0.00 78 1015.7
20260831150738 31 338 0.0 3.2 0.00 0.00 0.00 79 1015.7
20260831145737 31 69 1.6 3.2 0.00 0.00 0.00 78 1015.7
20260831144705 30 40 0.0 6.4 0.00 0.00 0.00 81 1015.7
20260831143704 30 26 4.8 6.4 0.00 0.00 0.00 80 1015.7
20260831142703 30 304 0.0 1.6 0.00 0.00 0.00 85 1015.4
20260831141703 30 315 0.0 3.2 0.00 0.00 0.00 85 1015.4
20260831140702 30 315 1.6 4.8 0.00 0.00 0.00 86 1015.4
20260831135630 29 311 1.6 4.8 0.00 0.00 0.00 86 1015.4
20260831134629 29 41 1.6 3.2 0.00 0.00 0.00 88 1015.4
20260831133628 28 63 1.6 3.2 0.00 0.00 0.00 89 1015.4
20260831132556 28 15 1.6 4.8 0.00 0.00 0.00 91 1015.4
20260831131554 27 133 1.6 4.8 0.00 0.00 0.00 93 1015.0
20260831130553 27 23 3.2 4.8 0.00 0.00 0.00 93 1015.0
20260831125552 27 332 0.0 4.8 0.00 0.00 0.00 95 1015.0
20260831124551 26 33 1.6 4.8 0.00 0.00 0.00 96 1015.0
20260831123551 25 25 3.2 4.8 0.00 0.00 0.00 99 1015.0
20260831122550 25 54 1.6 1.6 0.00 0.00 0.00 100 1015.0
20260831121549 25 11 0.0 1.6 0.00 0.00 0.00 100 1014.7
20260831120520 24 11 0.0 1.6 0.00 0.00 0.00 100 1014.7
20260831114619 23 10 0.0 0.0 0.00 0.00 0.00 99 1014.7
20260831113619 23 10 0.0 0.0 0.00 0.00 0.00 99 1014.4
20260831112618 23 10 0.0 0.0 0.00 0.00 0.00 99 1014.4
20260831111617 23 11 0.0 0.0 0.00 0.00 0.00 99 1014.4
20260831110616 23 11 0.0 0.0 0.00 0.00 0.00 99 1014.4
20260831105616 23 11 0.0 0.0 0.00 0.00 0.00 99 1014.0
20260831104615 23 10 0.0 0.0 0.00 0.00 0.00 99 1014.0
20260831103614 23 11 0.0 0.0 0.00 0.00 0.00 99 1013.7
20260831102613 23 11 0.0 0.0 0.00 0.00 0.00 99 1013.7
20260831101541 23 10 0.0 0.0 0.00 0.00 0.00 99 1013.7
20260831100540 23 11 0.0 0.0 0.00 0.00 0.00 99 1013.7
20260831095539 23 10 0.0 0.0 0.00 0.00 0.00 99 1013.7
20260831094539 23 10 0.0 0.0 0.00 0.00 0.00 99 1013.7
20260831093538 23 11 0.0 0.0 0.00 0.00 0.00 99 1013.3
20260831092537 23 11 0.0 0.0 0.00 0.00 0.00 99 1013.7
20260831091536 23 11 0.0 0.0 0.00 0.00 0.00 99 1013.7
20260831090535 23 10 0.0 0.0 0.00 0.00 0.00 99 1013.7
20260831085504 23 11 0.0 0.0 0.00 0.00 0.00 99 1013.3
20260831084503 23 10 0.0 0.0 0.00 0.00 0.00 99 1013.7
20260831083430 23 11 0.0 0.0 0.00 0.00 0.00 99 1013.7
20260831082430 23 10 0.0 0.0 0.00 0.00 0.00 99 1013.7
20260831081429 23 11 0.0 0.0 0.00 0.00 0.00 98 1013.7
20260831080428 23 10 0.0 0.0 0.00 0.00 0.00 98 1013.7
20260831075427 23 11 0.0 0.0 0.00 0.00 0.00 98 1014.0
20260831074426 23 10 0.0 0.0 0.00 0.00 0.00 98 1014.0
20260831073252 23 11 0.0 0.0 0.00 0.00 0.00 98 1014.0
20260831072252 23 10 0.0 0.0 0.00 0.00 0.00 98 1014.0
20260831071251 23 10 0.0 0.0 0.00 0.00 0.00 98 1014.0
20260831070219 23 10 0.0 0.0 0.00 0.00 0.00 98 1014.0
20260831065218 23 10 0.0 0.0 0.00 0.00 0.00 98 1014.4
20260831064043 23 10 0.0 0.0 0.00 0.00 0.00 98 1014.4
20260831063043 24 11 0.0 0.0 0.00 0.00 0.00 98 1014.4
20260831062042 23 11 0.0 0.0 0.00 0.00 0.00 98 1014.4
20260831061010 23 11 0.0 0.0 0.00 0.00 0.00 98 1014.4
20260831060009 24 11 0.0 0.0 0.00 0.00 0.00 98 1014.7
20260831055009 24 10 0.0 0.0 0.00 0.00 0.00 98 1014.7
20260831054008 24 11 0.0 0.0 0.00 0.00 0.00 98 1014.7
20260831052936 24 11 0.0 0.0 0.00 0.00 0.00 98 1014.7
20260831051935 24 11 0.0 0.0 0.00 0.00 0.00 98 1014.7
20260831050934 24 10 0.0 0.0 0.00 0.00 0.00 98 1014.7
20260831045934 24 10 0.0 0.0 0.00 0.00 0.00 98 1014.7
20260831044933 24 11 0.0 0.0 0.00 0.00 0.00 97 1014.7
20260831043932 25 10 0.0 0.0 0.00 0.00 0.00 97 1014.7
20260831042931 25 10 0.0 0.0 0.00 0.00 0.00 97 1014.7
20260831041931 25 10 0.0 0.0 0.00 0.00 0.00 97 1014.7
20260831040930 25 10 0.0 0.0 0.00 0.00 0.00 97 1014.7
20260831035929 25 10 0.0 0.0 0.00 0.00 0.00 96 1014.7
20260831034928 25 11 0.0 0.0 0.00 0.00 0.00 96 1014.7
20260831033927 25 10 0.0 1.6 0.00 0.00 0.00 96 1014.7
20260831032926 25 10 0.0 1.6 0.00 0.00 0.00 96 1014.7
20260831031925 25 11 1.6 1.6 0.00 0.00 0.00 96 1015.1
20260831030925 25 10 0.0 0.0 0.00 0.00 0.00 96 1015.1
20260831025822 26 10 0.0 0.0 0.00 0.00 0.00 95 1015.1
20260831024821 26 10 0.0 0.0 0.00 0.00 0.00 95 1015.1
20260831023820 26 10 0.0 0.0 0.00 0.00 0.00 95 1015.1
20260831022820 26 11 0.0 0.0 0.00 0.00 0.00 94 1015.1
20260831021819 26 11 0.0 1.6 0.00 0.00 0.00 94 1015.1
20260831020818 26 23 1.6 3.2 0.00 0.00 0.00 93 1015.1
20260831015817 26 15 0.0 1.6 0.00 0.00 0.00 93 1015.0
20260831014817 26 32 0.0 1.6 0.00 0.00 0.00 93 1015.0
20260831013816 27 32 0.0 1.6 0.00 0.00 0.00 92 1015.0
20260831012815 27 34 0.0 1.6 0.00 0.00 0.00 91 1015.0
20260831011744 27 34 0.0 1.6 0.00 0.00 0.00 91 1015.0
20260831010742 27 36 1.6 1.6 0.00 0.00 0.00 91 1015.0
20260831005742 27 113 1.6 1.6 0.00 0.00 0.00 90 1015.0
20260831004741 27 113 0.0 1.6 0.00 0.00 0.00 90 1015.0
20260831003740 27 82 1.6 3.2 0.00 0.00 0.00 89 1014.7
20260831002739 27 108 0.0 3.2 0.00 0.00 0.00 89 1015.0
20260831001738 27 40 1.6 4.8 0.00 0.00 0.00 88 1014.7
20260831000737 27 79 1.6 6.4 0.00 0.00 0.00 88 1014.7
20260830235705 28 66 1.6 6.4 0.00 0.00 0.00 88 1014.4
20260830234704 28 51 1.6 6.4 0.00 0.00 0.00 88 1014.4
20260830233703 28 14 1.6 4.8 0.00 0.00 0.00 88 1014.4
20260830232703 28 51 1.6 6.4 0.00 0.00 0.00 87 1014.4
20260830231631 28 64 3.2 6.4 0.00 0.00 0.00 86 1014.4
20260830230630 28 111 1.6 4.8 0.00 0.00 0.00 85 1014.4
20260830225629 28 24 1.6 4.8 0.00 0.00 0.00 85 1014.4
20260830224629 28 100 3.2 4.8 0.00 0.00 0.00 84 1014.4
20260830223557 28 42 3.2 6.4 0.00 0.00 0.00 84 1014.4
20260830222556 29 19 1.6 9.7 0.00 0.00 0.00 84 1014.4
20260830221555 29 26 1.6 11.3 0.00 0.00 0.00 83 1014.0
20260830220523 29 75 3.2 8.0 0.00 0.00 0.00 83 1014.0
20260830215522 29 93 3.2 9.7 0.00 0.00 0.00 83 1014.0
20260830214348 29 47 3.2 4.8 0.00 0.00 0.00 82 1014.0
20260830213347 29 24 1.6 6.4 0.00 0.00 0.00 82 1013.7
20260830212346 29 121 1.6 8.0 0.00 0.00 0.00 82 1013.7
20260830211345 29 86 1.6 8.0 0.00 0.00 0.00 82 1013.7
20260830210344 29 76 3.2 12.9 0.00 0.00 0.00 81 1014.0
20260830205312 29 73 1.6 12.9 0.00 0.00 0.00 81 1014.0
20260830204240 30 119 3.2 11.3 0.00 0.00 0.00 80 1014.0
20260830203239 30 116 3.2 11.3 0.00 0.00 0.00 80 1014.0
20260830202238 30 150 3.2 16.1 0.00 0.00 0.00 80 1014.0
20260830201238 30 97 3.2 16.1 0.00 0.00 0.00 77 1014.0
20260830200237 31 122 6.4 14.5 0.00 0.00 0.00 75 1014.4
20260830195236 31 118 4.8 16.1 0.00 0.00 0.00 74 1014.4
20260830194235 32 97 3.2 16.1 0.00 0.00 0.00 71 1014.4
20260830193234 33 114 3.2 14.5 0.00 0.00 0.00 68 1014.4
20260830192233 33 87 3.2 14.5 0.00 0.00 0.00 63 1014.4
20260830191233 33 39 3.2 14.5 0.00 0.00 0.00 61 1014.4
20260830190201 33 53 4.8 11.3 0.00 0.00 0.00 63 1014.4
20260830185200 33 56 3.2 12.9 0.00 0.00 0.00 62 1014.4
20260830184159 33 122 3.2 14.5 0.00 0.00 0.00 63 1014.4